Berlin, NH

4:28 AM EDT on May 23, 2017 (GMT -0400)
Berlin Municipal

Weather History for KBML - February, 2014

Change the Weather History Date:

Sunday, February 9, 2014

  Actual Average Record
Temperature  
Mean Temperature 10 °F -  
Max Temperature 21 °F 26 °F 39 °F (1998)
Min Temperature 0 °F 0 °F -22 °F (1997)
Degree Days  
Heating Degree Days 54    
Moisture  
Dew Point 7 °F    
Average Humidity 75    
Maximum Humidity 86    
Minimum Humidity 44    
Precipitation  
Precipitation 0.00 in - - ()
Sea Level Pressure  
Sea Level Pressure 30.01 in    
Wind  
Wind Speed 1 mph (NNW)    
Max Wind Speed 6 mph    
Max Gust Speed -    
Visibility 6 miles    
Events Snow    
Averages and records for this station are not official NWS values.
T = Trace of Precipitation, MM = Missing Value Source: NWS Daily Summary

Daily Weather History Graph

Daily Weather History Graph

Search for Another Location

Airport or City:

Trip Planner

Search our weather history database for the weather conditions in past years. The results will help you decide how hot, cold, wet, or windy it might be!

Date:

Astronomy

Feb. 09, 2014 Rise Set
Actual Time 6:53 AM EST 5:05 PM EST
Civil Twilight 6:23 AM EST 5:35 PM EST
Nautical Twilight 5:48 AM EST 6:09 PM EST
Astronomical Twilight 5:14 AM EST 6:43 PM EST
Moon 12:38 PM EST (2/9) 3:00 AM EST (2/9)
Length of Visible Light 11h 12m
Length of Day
10h 11m
Waxing Gibbous, 77% of the Moon is Illuminated
Feb 9
Waxing Gibbous
Feb 14
Full
Feb 22
Last Quarter
Mar 1
New
Mar 8
First Quarter

Hourly Weather History & Observations

Time (EST) Temp. Windchill Dew Point Humidity Pressure Visibility Wind Dir Wind Speed Gust Speed Precip Events Conditions
12:52 AM -0.0 °F - -5.1 °F 79% 30.16 in 10.0 mi Calm Calm - N/A   Overcast
1:52 AM -0.0 °F - -5.1 °F 79% 30.16 in 10.0 mi Calm Calm - N/A   Overcast
2:52 AM 1.9 °F - -2.9 °F 80% 30.15 in 10.0 mi Calm Calm - N/A   Overcast
3:52 AM 1.9 °F - -2.9 °F 80% 30.15 in 10.0 mi Calm Calm - N/A   Overcast
4:52 AM 1.9 °F - -2.0 °F 83% 30.16 in 9.0 mi Calm Calm - N/A   Overcast
5:52 AM 1.9 °F - -2.0 °F 83% 30.16 in 9.0 mi Calm Calm - N/A   Overcast
6:52 AM 3.0 °F - -2.0 °F 80% 30.17 in 8.0 mi Calm Calm - N/A   Overcast
7:52 AM 3.0 °F - -0.9 °F 84% 30.17 in 6.0 mi Calm Calm - N/A   Overcast
8:52 AM 6.1 °F - 1.9 °F 83% 30.18 in 8.0 mi Calm Calm - N/A   Partly Cloudy
9:52 AM 14.0 °F - 6.1 °F 71% 30.15 in 10.0 mi Calm Calm - N/A   Clear
10:52 AM 18.0 °F 11.1 °F 3.0 °F 52% 30.14 in 10.0 mi South 4.6 mph - N/A   Mostly Cloudy
11:52 AM 19.0 °F 11.1 °F 1.9 °F 47% 30.11 in 10.0 mi North 5.8 mph - N/A   Partly Cloudy
12:52 PM 19.9 °F 14.9 °F 3.0 °F 48% 30.06 in 10.0 mi East 3.5 mph - N/A   Clear
1:52 PM 21.0 °F - 3.0 °F 46% 30.03 in 10.0 mi Calm Calm - N/A   Clear
2:52 PM 21.9 °F 17.2 °F 3.0 °F 44% 30.03 in 10.0 mi NNE 3.5 mph - N/A   Partly Cloudy
3:52 PM 21.0 °F 14.6 °F 3.9 °F 48% 30.01 in 10.0 mi NNW 4.6 mph - N/A   Mostly Cloudy
4:52 PM 19.9 °F - 5.0 °F 52% 30.00 in 10.0 mi Calm Calm - N/A   Mostly Cloudy
5:52 PM 18.0 °F - 9.0 °F 68% 30.01 in 10.0 mi Calm Calm - N/A   Overcast
6:52 PM 18.0 °F - 10.0 °F 71% 30.01 in 5.0 mi Calm Calm - N/A   Haze
7:02 PM 18.0 °F - 10.9 °F 74% 29.93 in 4.0 mi Calm Calm - 0.00 in Snow Light Snow
7:17 PM 17.1 °F - 12.0 °F 81% 29.93 in 3.0 mi Calm Calm - 0.00 in Snow Light Snow
7:33 PM 17.1 °F - 12.0 °F 81% 29.93 in 2.5 mi Calm Calm - 0.00 in Snow Light Snow
7:52 PM 17.1 °F - 12.9 °F 84% 30.00 in 2.5 mi Calm Calm - 0.00 in Snow Light Snow
7:59 PM 17.1 °F - 12.9 °F 84% 29.92 in 3.0 mi Calm Calm - 0.00 in Snow Light Snow
8:06 PM 17.1 °F - 12.0 °F 81% 29.92 in 2.5 mi Calm Calm - 0.00 in Snow Light Snow
8:17 PM 17.1 °F - 12.0 °F 81% 29.92 in 3.0 mi Calm Calm - 0.00 in Snow Light Snow
8:44 PM 17.1 °F 11.7 °F 12.0 °F 81% 29.91 in 2.0 mi NNW 3.5 mph - 0.00 in Snow Light Snow
8:48 PM 17.6 °F 12.3 °F 12.2 °F 79% 29.91 in 1.8 mi NNW 3.5 mph - 0.00 in Snow Light Snow
8:52 PM 17.1 °F 11.7 °F 12.0 °F 81% 29.99 in 1.8 mi NNW 3.5 mph - 0.00 in Snow Light Snow
8:58 PM 17.1 °F 11.7 °F 12.0 °F 81% 29.91 in 2.0 mi NNW 3.5 mph - 0.00 in Snow Light Snow
9:18 PM 17.1 °F 11.7 °F 12.0 °F 81% 29.91 in 3.0 mi NNW 3.5 mph - 0.00 in Snow Light Snow
9:29 PM 16.0 °F 10.4 °F 12.0 °F 84% 29.91 in 2.5 mi North 3.5 mph - 0.00 in Snow Light Snow
9:50 PM 15.8 °F 10.2 °F 12.2 °F 86% 29.90 in 2.0 mi NNW 3.5 mph - 0.00 in Snow Light Snow
9:52 PM 16.0 °F 8.8 °F 12.0 °F 84% 29.97 in 2.0 mi NNW 4.6 mph - 0.00 in Snow Light Snow
10:02 PM 16.0 °F 8.8 °F 12.0 °F 84% 29.89 in 2.5 mi NNW 4.6 mph - 0.00 in Snow Light Snow
10:16 PM 16.0 °F 10.4 °F 10.9 °F 81% 29.88 in 3.0 mi NNW 3.5 mph - 0.00 in Snow Light Snow
10:27 PM 16.0 °F 8.8 °F 10.9 °F 81% 29.88 in 2.5 mi NNW 4.6 mph - 0.00 in Snow Light Snow
10:40 PM 16.0 °F 7.4 °F 10.9 °F 81% 29.88 in 3.0 mi NNW 5.8 mph - 0.00 in Snow Light Snow
10:52 PM 16.0 °F - 10.9 °F 81% 29.95 in 4.0 mi Calm Calm - 0.00 in Snow Light Snow
11:16 PM 16.0 °F - 10.9 °F 81% 29.88 in 2.5 mi Calm Calm - 0.00 in Snow Light Snow
11:52 PM 15.1 °F - 10.9 °F 84% 29.94 in 2.5 mi Calm Calm - 0.00 in Snow Light Snow